Regional Weather Roundup
Issued by NWS

Home | Current Version | Previous Version | Graphics & Text | Print | Product List | Glossary On
Versions: 1 2 3 4 5 6 7 8 9 10 11 12 13 14 15 16 17 18 19 20 21 22 23 24 25 26 27 28 29 30 31 32 33 34 35 36 37 38 39 40 41 42 43 44 45 46 47 48 49 50
000
ASUS43 KBIS 211720
RWRND

NORTH DAKOTA REGIONAL WEATHER ROUNDUP
NATIONAL WEATHER SERVICE BISMARCK ND
1100 AM CST FRI NOV 21 2014

NOTE: "FAIR" INDICATES FEW OR NO CLOUDS BELOW 12,000 FEET WITH NO
SIGNIFICANT WEATHER AND/OR OBSTRUCTIONS TO VISIBILITY.


NDZ001>003-009>011-017-211800-
NORTHWEST NORTH DAKOTA

CITY           SKY/WX    TMP DP  RH WIND       PRES   REMARKS
WILLISTON      SUNNY     35  25  66 S9        29.66F
MINOT          SUNNY     44  26  49 SW21G28   29.61F
MINOT AFB      SUNNY     44  29  54 W16G23    29.59F
$$

NDZ018>021-031>035-040>046-211800-
SOUTHWEST NORTH DAKOTA

CITY           SKY/WX    TMP DP  RH WIND       PRES   REMARKS
BISMARCK       MOSUNNY   28  20  71 CALM      29.76S
DICKINSON      SUNNY     38  27  64 W17       29.71F
GARRISON         N/A     40  30  67 SW15      29.67S
HETTINGER ARPT PTSUNNY   36  26  67 W7        29.79S
$$

NDZ004>008-012>016-024-026-027-054-211800-
NORTHEAST NORTH DAKOTA

CITY           SKY/WX    TMP DP  RH WIND       PRES   REMARKS
GRAND FORKS    MOSUNNY   25  17  72 S21G29    29.74F WCI  11
GRND FRKS AFB  MOSUNNY   27  17  67 S18       29.73F HAZE    WCI  14
DEVILS LAKE    MOSUNNY   30  18  59 SW10      29.65S
$$

NDZ022-023-025-028>030-036>039-047>053-211800-
SOUTHEAST NORTH DAKOTA

CITY           SKY/WX    TMP DP  RH WIND       PRES   REMARKS
FARGO          SUNNY     27  17  66 S15G25    29.84F WCI  15
JAMESTOWN      SUNNY     28  19  69 S12       29.75S WCI  18
$$



USA.gov is the U.S. government's official web portal to all federal, state and local government web resources and services.